Tracking 32938 objects as of 13-Jan-2026
HD Live streaming from Space Station
objects crossing your sky now

STARLINK-31280

Track STARLINK-31280 now!
10-day predictions
STARLINK-31280 is classified as:


NORAD ID: 58843
Int'l Code: 2024-017T
Perigee: 481.3 km
Apogee: 483.5 km
Inclination: 53.2 °
Period: 94.1 minutes
Semi major axis: 6853 km
RCS: Unknown
Launch date: January 24, 2024
Source: United States (US)
Launch site: AIR FORCE WESTERN TEST RANGE (AFWTR)
Your satellite tracking list
Your tracking list is empty




NASA's NSSDC Master Catalog

Two Line Element Set (TLE):
1 58843U 24017T   26013.23573762  .00004183  00000-0  15331-3 0  9991
2 58843  53.1583 102.0615 0001612  78.5302 281.5880 15.30194536111568
Source of the keplerian elements: AFSPC